Weather in Vlast Truda

Russia / Samara Oblast     53°28′29″N   49°59′30″E
temp.,
°C
wind,
m/s
gust,
m/s
humid.,
%
clouds,
%
prec.,
mm/h
press.,
hPa
HPBL,
m
27 january, wed
wed2701:00−4s41094100 0.1 1027379
04:00−4sse31095100 0.1 1026376
07:00−5sse31095100 0.1 1026405
10:00−5sse41096100 0.1 1026387
13:00−4s51094100 0.1 1026460
16:00−4sse41294100 0.1 1025445
19:00−7sse41392100 0.0 1025405
22:00−7sse41394100 0.0 1024415
28 january, thu
thu2801:00−6sse41294100 0.0 1024433
04:00−7sse31294100 0.0 1023365
07:00−8sse41092100 0.0 1022321
10:00−8sse4993100 0.0 1022327
13:00−6sse51094100 0.0 1021362
16:00−6sse41093100 0.0 1020388
19:00−8se41095100 0.0 1019285
22:00−9sse3896100 0.0 1019170
29 january, fri
fri2901:00−9se3697100 0.0 1018150
04:00−8se3896100 0.0 1016259
07:00−8se3896100 0.0 1014308
10:00−7se3995100 0.1 1012395
13:00−4se4894100 0.1 1011473
16:00−4sse4995100 1.0 1009548
19:00−4sse41096100 0.2 1008461
22:00−5s379688 0.3 1008185
30 january, sat
sat3001:00−4s3109693 0.0 1008340
04:00−5s379696 0.0 1008180
07:00−6sse389676 0.0 1008195
10:00−4sse5139588 0.0 1007439
13:000s91792100 0.4 10051134
16:00+1ssw81697100 1.6 10051099
19:00−1sw5138498 1.8 1007843
22:00−5sw378853 1.8 1009132
31 january, sun
sun3101:00−3ssw389398 0.0 1010225
04:00−3s279699 0.1 1010276
07:000s31199100 0.4 1009500
10:00+1s412100100 0.8 1009476
13:00−1s71487100 0.0 1010520
16:00−1s71679100 0.0 1010570
19:00−2s71782100 0.0 1009595
22:00−2s71495100 1.1 1009561